Zurück zum Katalog

COSMOS 1691 DEB

AktivPO
NORAD 20284·DEBRIS·🇷🇺 Russia

Gestartet Oct 9, 1985 von Plesetsk Cosmodrome

Loading…

Nächste Überflüge (nächste 24 Stunden)

TLE

AktuellSource: Space-Track

Epoche: Sep 14, 2026, 11:35 UTC

1 20284U 85094X   26257.48324637  .00000159  00000-0  11364-2 0  9993
2 20284  83.1862  73.6072 0225588  19.2547   8.4764 12.31673110576607

Verfolge COSMOS 1691 DEB in Echtzeit mit AllMySat

Download on the App Store